Flag for Tunisia Weather past 2 weeks in Tunis, Tunisia

Now
84 °F

Scattered clouds.


Feels Like: 84 °F
Forecast: 73 / 89 °F
Wind: 21 mph from Northwest

Location: Tunis-Carthage

Current Time: Jul 22, 2014 at 10:53:57 PM

Latest Report: Jul 22, 2014 at 6:00 PM


Visibility: N/A

Pressure: 29.89 "Hg

Humidity: 43%

Dew point: 59 °F

Location of TunisLocation

Historic Weather in Tunis — Graph

°F

Tunis temperature yesterday

Maximum temperature yesterday: 90 °F (at 11:00 AM)
Minimum temperature yesterday: 75 °F (at 10:30 PM)
Average temperature yesterday: 83 °F

Past Weeks' High & Low Weather Summary

 TemperatureHumidityPressure
High104 °F (Jul 20, 2:30 PM)83% (Jul 12, 11:30 PM)30.09 "Hg (Jul 12, 11:30 PM)
Low68 °F (Jul 13, 12:30 AM)18% (Jul 19, 1:30 PM)29.86 "Hg (Jul 20, 2:00 PM)
Average80 °F56%30.00 "Hg
* Reported Jul 7 5:30 PM — Jul 22 5:30 PM, Tunis, Weather by CustomWeather, © 2014

Note: Actual official high and low records may vary slightly from our data, if they occured in-between our weather recording intervals... More about our weather records

Advertising

Tunis weather history for previous 24 hours

 ConditionsComfort  
Time TempWeatherWind HumidityBarometerVisibility
5:30 PM
Jul 22
84 °FScattered clouds.18 mph43%29.89 "HgN/A
5:00 PM86 °FScattered clouds.20 mph40%29.89 "HgN/A
4:30 PM86 °FScattered clouds.23 mph40%29.89 "HgN/A
4:00 PM86 °FScattered clouds.21 mph40%29.89 "HgN/A
3:30 PM86 °FScattered clouds.23 mph40%29.89 "HgN/A
3:00 PM88 °FScattered clouds.22 mph38%29.89 "HgN/A
2:30 PM88 °FScattered clouds.23 mph38%29.89 "HgN/A
2:00 PM88 °FScattered clouds.20 mph35%29.92 "HgN/A
1:00 PM86 °FScattered clouds.20 mph38%29.92 "HgN/A
12:30 PM88 °FScattered clouds.21 mph38%29.92 "HgN/A
12:00 PM88 °FScattered clouds.20 mph38%29.95 "HgN/A
11:30 AM88 °FScattered clouds.20 mph35%29.95 "HgN/A
11:00 AM86 °FScattered clouds.20 mph40%29.95 "HgN/A
10:30 AM84 °FScattered clouds.16 mph45%29.95 "HgN/A
10:00 AM82 °FScattered clouds.14 mph48%29.95 "HgN/A
9:30 AM84 °FScattered clouds.15 mph45%29.95 "HgN/A
9:00 AM81 °FScattered clouds.13 mph54%29.95 "HgN/A
8:30 AM81 °FPassing clouds.13 mph54%29.95 "HgN/A
8:00 AM79 °FPassing clouds.10 mph58%29.95 "HgN/A
7:30 AM77 °FPassing clouds.13 mph61%29.95 "HgN/A
6:00 AM73 °FSunny.10 mph69%29.95 "Hg10 mi
5:30 AM72 °FSunny.9 mph73%29.95 "Hg10 mi
5:00 AM72 °FPassing clouds.9 mph73%29.95 "HgN/A
4:00 AM73 °FPassing clouds.12 mph69%29.95 "HgN/A
3:30 AM73 °FPassing clouds.12 mph69%29.95 "HgN/A
3:00 AM73 °FPassing clouds.12 mph69%29.95 "HgN/A
2:30 AM73 °FPassing clouds.13 mph69%29.95 "HgN/A
2:00 AM73 °FPassing clouds.9 mph69%29.98 "HgN/A
1:30 AM73 °FPassing clouds.10 mph69%29.98 "HgN/A
1:00 AM73 °FPassing clouds.9 mph69%30.01 "HgN/A
12:30 AM73 °FPassing clouds.9 mph69%30.01 "HgN/A
12:00 AM73 °FPassing clouds.8 mph69%30.01 "HgN/A
11:30 PM
Jul 21
75 °FPassing clouds.9 mph65%30.01 "HgN/A
11:00 PM75 °FPassing clouds.10 mph65%30.01 "HgN/A
10:30 PM75 °FPassing clouds.10 mph65%30.01 "HgN/A
Weather by CustomWeather, © 2014

See weather overviewHow to use our weather pages